DO9LL-1 Weather Reports


time (UTC)temp
C
wind
direction
speed
KPH
gust
KPH
rain 1hr
cm
rain 24hr
cm
rain mn
cm
humidity
%
barometer
mb
20260506121216 8 357 0.0 3.2 0.05 2.08 2.06 95 1007.1
20260506120233 8 332 0.0 3.2 0.05 2.08 2.06 95 1007.1
20260506115229 8 343 0.0 3.2 0.08 2.08 2.06 95 1007.0
20260506114225 8 347 1.6 3.2 0.08 2.08 2.06 94 1007.0
20260506113216 8 0.0 0.0 0.05 2.06 2.03 95 1007.1
20260506112218 8 327 1.6 4.8 0.08 2.06 2.03 94 1007.0
20260506111235 8 333 1.6 3.2 0.05 2.03 2.01 94 1007.1
20260506110231 8 289 1.6 9.7 0.05 2.03 2.01 94 1006.9
20260506105230 8 326 1.6 3.2 0.03 2.01 1.98 94 1006.9
20260506104225 7 353 1.6 9.7 0.03 2.01 1.98 95 1006.8
20260506103222 7 319 1.6 4.8 0.03 2.01 1.98 95 1006.8
20260506102218 7 329 0.0 3.2 0.00 1.98 1.96 95 1006.8
20260506101237 7 308 1.6 6.4 0.00 1.98 1.96 95 1006.6
20260506100232 7 313 1.6 6.4 0.00 1.98 1.96 95 1006.6
20260506095228 7 343 1.6 3.2 0.00 1.98 1.96 95 1006.6
20260506094226 7 314 1.6 6.4 0.03 1.98 1.96 95 1006.5
20260506093222 7 317 1.6 4.8 0.03 1.98 1.96 96 1006.5
20260506092218 7 330 1.6 4.8 0.03 1.98 1.96 96 1006.4
20260506091235 7 343 1.6 6.4 0.03 1.98 1.96 96 1006.4
20260506090231 7 346 1.6 4.8 0.05 1.98 1.96 96 1006.2
20260506085228 7 349 1.6 6.4 0.05 1.98 1.96 96 1006.3
20260506084225 7 320 1.6 6.4 0.05 1.96 1.93 96 1006.2
20260506083221 7 319 1.6 9.7 0.08 1.96 1.93 96 1006.2
20260506082218 7 317 1.6 6.4 0.10 1.96 1.93 97 1006.1
20260506081235 7 331 1.6 3.2 0.13 1.96 1.93 97 1006.0
20260506080232 7 331 0.0 6.4 0.13 1.93 1.91 97 1006.0
20260506073221 7 323 1.6 6.4 0.13 1.88 1.85 97 1005.9
20260506072218 7 330 0.0 4.8 0.13 1.85 1.83 97 1005.8
20260506071234 7 344 1.6 4.8 0.13 1.83 1.80 97 1005.8
20260506070232 7 310 1.6 3.2 0.13 1.80 1.78 97 1005.8
20260506062218 7 345 1.6 4.8 0.15 1.73 1.70 97 1005.4
20260506061235 8 310 0.0 4.8 0.18 1.70 1.68 97 1005.3
20260506060231 8 357 1.6 3.2 0.20 1.68 1.65 97 1005.3
20260506051233 8 329 1.6 3.2 0.28 1.57 1.50 97 1005.2
20260506050230 8 294 1.6 3.2 0.28 1.52 1.45 97 1005.2
20260506044223 8 353 1.6 3.2 0.25 1.45 1.35 98 1005.2
20260506043220 8 359 1.6 4.8 0.25 1.42 1.32 98 1005.2
20260506042217 8 360 0.0 1.6 0.23 1.37 1.27 97 1005.2
20260506041234 8 342 0.0 3.2 0.23 1.32 1.22 97 1005.3
20260506040230 8 305 0.0 3.2 0.20 1.30 1.17 97 1005.3
20260506035227 8 334 1.6 4.8 0.23 1.27 1.14 97 1005.2
20260506034224 8 329 1.6 4.8 0.20 1.22 1.09 97 1005.3
20260506033220 8 286 0.0 3.2 0.23 1.19 1.07 97 1005.4
20260506032218 8 342 0.0 1.6 0.23 1.17 1.04 97 1005.4
20260506031235 8 360 1.6 4.8 0.20 1.12 0.99 97 1005.4
20260506030231 8 310 1.6 3.2 0.23 1.09 0.97 97 1005.6
20260506025233 8 324 0.0 3.2 0.23 1.04 0.91 97 1005.7
20260506024225 9 309 1.6 4.8 0.23 1.02 0.89 97 1005.7
20260506023223 9 313 1.6 3.2 0.23 0.97 0.84 97 1005.8
20260506022218 9 326 1.6 4.8 0.25 0.94 0.81 98 1006.0
20260506021234 9 313 0.0 4.8 0.28 0.91 0.79 98 1005.9
20260506020231 9 296 0.0 6.4 0.28 0.86 0.74 98 1006.1
20260506015228 9 300 0.0 3.2 0.25 0.81 0.69 98 1006.0
20260506014225 9 296 0.0 3.2 0.28 0.79 0.66 98 1006.1
20260506013221 9 344 0.0 3.2 0.25 0.74 0.61 98 1006.0
20260506012220 9 323 1.6 3.2 0.25 0.69 0.56 98 1006.1
20260506011240 9 351 0.0 3.2 0.25 0.64 0.51 98 1006.1
20260506010231 9 337 0.0 3.2 0.23 0.58 0.46 97 1006.2
20260506005230 9 347 0.0 3.2 0.23 0.56 0.43 97 1006.2
20260506004225 9 308 0.0 1.6 0.20 0.53 0.38 97 1006.4
20260506003222 9 325 1.6 4.8 0.20 0.51 0.36 97 1006.3
20260506002220 9 340 0.0 3.2 0.18 0.46 0.30 97 1006.5
20260506001216 9 293 0.0 3.2 0.15 0.41 0.25 97 1006.5
20260506000233 9 341 0.0 1.6 0.15 0.41 0.23 97 1006.6
20260505235230 9 353 1.6 4.8 0.15 0.38 0.20 97 1006.8
20260505234226 9 349 1.6 4.8 0.18 0.36 0.18 97 1006.8
20260505233224 9 349 0.0 3.2 0.15 0.36 0.15 97 1006.9
20260505232220 9 353 1.6 3.2 0.13 0.33 0.13 97 1006.9
20260505231217 9 348 1.6 3.2 0.10 0.30 0.10 97 1007.0
20260505230234 9 358 1.6 3.2 0.08 0.30 0.08 96 1007.1
20260505225231 9 354 1.6 3.2 0.05 0.28 0.05 96 1007.1
20260505224228 9 346 1.6 4.8 0.03 0.23 0.00 96 1007.1
20260505223224 9 354 1.6 4.8 0.03 0.25 0.00 96 1007.2
20260505222220 9 4 1.6 4.8 0.03 0.25 0.00 95 1007.2
20260505221217 9 352 1.6 4.8 0.03 0.25 0.00 95 1007.2
20260505220234 10 357 1.6 3.2 0.03 0.25 0.25 94 1007.3
20260505215230 10 346 1.6 3.2 0.03 0.25 0.25 94 1007.3
20260505214227 10 352 1.6 4.8 0.00 0.23 0.23 93 1007.5
20260505213224 10 7 0.0 3.2 0.00 0.23 0.23 92 1007.5
20260505212220 10 312 1.6 4.8 0.00 0.23 0.23 91 1007.7
20260505211217 10 323 1.6 4.8 0.00 0.23 0.23 91 1007.7
20260505210234 10 352 1.6 4.8 0.00 0.23 0.23 90 1007.7
20260505205230 10 353 0.0 3.2 0.00 0.23 0.23 90 1007.7
20260505204227 10 332 1.6 4.8 0.00 0.23 0.23 90 1007.7
20260505203224 10 328 1.6 4.8 0.00 0.23 0.23 91 1007.7
20260505202221 10 337 0.0 1.6 0.00 0.23 0.23 91 1007.8
20260505201218 10 359 0.0 1.6 0.00 0.23 0.23 91 1007.7
20260505200235 10 314 0.0 3.2 0.00 0.23 0.23 91 1007.7
20260505195232 10 332 0.0 1.6 0.00 0.23 0.23 91 1007.6
20260505194228 10 306 0.0 3.2 0.00 0.23 0.23 90 1007.7
20260505193225 10 310 0.0 3.2 0.00 0.25 0.23 90 1007.6
20260505192222 10 344 0.0 1.6 0.00 0.25 0.23 90 1007.6
20260505191219 10 323 0.0 3.2 0.00 0.25 0.23 90 1007.6
20260505190215 10 351 0.0 3.2 0.00 0.28 0.23 90 1007.6
20260505185232 10 325 1.6 3.2 0.00 0.28 0.23 90 1007.5
20260505184229 10 308 0.0 1.6 0.00 0.30 0.23 91 1007.6
20260505183230 10 312 0.0 3.2 0.00 0.46 0.23 92 1007.6
20260505182223 10 317 0.0 3.2 0.00 0.89 0.23 92 1007.6
20260505181219 10 342 1.6 6.4 0.00 1.22 0.23 92 1007.7
20260505180216 10 342 1.6 6.4 0.00 1.55 0.23 92 1007.7
20260505175232 10 325 1.6 4.8 0.00 1.55 0.23 92 1007.8
20260505174229 10 343 1.6 4.8 0.00 1.55 0.23 93 1007.6
20260505173226 10 338 0.0 3.2 0.00 1.55 0.23 93 1007.7
20260505172223 10 315 1.6 4.8 0.00 1.55 0.23 93 1007.8
20260505171220 10 297 1.6 4.8 0.00 1.55 0.23 93 1007.7
20260505170216 10 346 1.6 4.8 0.00 1.55 0.23 93 1007.8
20260505165233 10 335 0.0 1.6 0.00 1.55 0.23 93 1007.9
20260505164230 10 1 1.6 3.2 0.00 1.55 0.23 93 1007.9
20260505163226 10 278 1.6 6.4 0.00 1.55 0.23 93 1008.0
20260505162223 10 303 1.6 9.7 0.00 1.55 0.23 93 1008.0
20260505161220 10 314 0.0 3.2 0.00 1.55 0.23 92 1008.1
20260505160217 10 295 0.0 4.8 0.00 1.55 0.23 92 1008.1
20260505153227 10 332 0.0 3.2 0.00 1.55 0.23 92 1008.2
20260505152223 10 344 1.6 9.7 0.00 1.55 0.23 92 1008.3
20260505151220 10 337 1.6 3.2 0.00 1.55 0.23 91 1008.5
20260505150218 10 332 0.0 3.2 0.00 1.55 0.23 91 1008.4
20260505140217 10 328 1.6 3.2 0.00 1.55 0.23 92 1008.7
20260505130218 10 351 1.6 4.8 0.00 1.55 0.23 92 1009.1
20260505124230 10 348 1.6 4.8 0.00 1.55 0.23 91 1009.2
20260505123232 10 336 0.0 6.4 0.00 1.55 0.23 91 1009.2
20260505122224 10 324 1.6 4.8 0.00 1.55 0.23 91 1009.3